EW7906 Weather Reports


Display with metric or nautical units.
time (UTC)temp
F
wind
direction
speed
MPH
gust
MPH
rain 1hr
in
rain 24hr
in
rain mn
in
humidity
%
barometer
mb
20260904151648 144 191 2.0 7.0 0.00 0.00 0.00 100 1014.7
20260904151419 144 140 0.0 8.0 0.00 0.00 0.00 100 1014.7
20260904150644 144 133 0.0 8.0 0.00 0.00 0.00 100 1014.8
20260904150415 144 178 5.0 12.0 0.00 0.00 0.00 100 1014.7
20260904145643 144 175 2.0 12.0 0.00 0.00 0.00 100 1014.7
20260904145132 144 239 0.0 9.0 0.00 0.00 0.00 100 1014.7
20260904144629 144 225 4.0 9.0 0.00 0.00 0.00 100 1014.7
20260904144129 144 165 0.0 6.0 0.00 0.00 0.00 100 1014.7
20260904143623 144 172 0.0 4.0 0.00 0.00 0.00 100 1014.7
20260904143110 144 164 1.0 5.0 0.00 0.00 0.00 100 1014.7
20260904142611 144 163 0.0 6.0 0.00 0.00 0.00 100 1014.7
20260904142335 144 163 2.0 7.0 0.00 0.00 0.00 100 1014.8
20260904141600 144 247 0.0 7.0 0.00 0.00 0.00 100 1014.8
20260904141058 144 192 1.0 4.0 0.00 0.00 0.00 100 1014.7
20260904140551 144 112 0.0 3.0 0.00 0.00 0.00 100 1014.8
20260904140048 144 112 0.0 3.0 0.00 0.00 0.00 100 1014.8
20260904135540 144 112 0.0 0.0 0.00 0.00 0.00 100 1014.8
20260904135308 144 112 0.0 0.0 0.00 0.00 0.00 1 1014.8
20260904134534 144 112 0.0 0.0 0.00 0.00 0.00 1 1014.7
20260904134025 144 112 0.0 0.0 0.00 0.00 0.00 2 1014.8
20260904133522 144 112 0.0 0.0 0.00 0.00 0.00 2 1014.8
20260904133020 144 112 0.0 0.0 0.00 0.00 0.00 3 1014.8
20260904132519 144 112 0.0 0.0 0.00 0.00 0.00 3 1014.8
20260904132018 144 112 0.0 0.0 0.00 0.00 0.00 3 1014.8
20260904131507 144 112 0.0 0.0 0.00 0.00 0.00 3 1014.8
20260904131009 144 112 0.0 0.0 0.00 0.00 0.00 2 1014.7
20260904131005 144 112 0.0 0.0 0.00 0.00 0.00 1 1014.7
20260904130001 144 112 0.0 0.0 0.00 0.00 0.00 1 1014.7
20260904125456 144 112 0.0 0.0 0.00 0.00 0.00 100 1014.7
20260904125221 144 112 0.0 0.0 0.00 0.00 0.00 100 1014.7
20260904124439 144 112 0.0 0.0 0.00 0.00 0.00 100 1014.6
20260904123937 144 112 0.0 0.0 0.00 0.00 0.00 100 1014.5
20260904123428 144 112 0.0 0.0 0.00 0.00 0.00 100 1014.4
20260904122907 144 112 0.0 0.0 0.00 0.00 0.00 100 1014.3
20260904122629 144 112 0.0 0.0 0.00 0.00 0.00 100 1014.3
20260904121852 144 112 0.0 3.0 0.00 0.00 0.00 100 1014.2
20260904121349 144 112 0.0 6.0 0.00 0.00 0.00 100 1014.0
20260904121343 144 136 0.0 6.0 0.00 0.00 0.00 100 1013.9
20260904120341 144 153 0.0 6.0 0.00 0.00 0.00 100 1013.8
20260904120115 144 136 0.0 7.0 0.00 0.00 0.00 100 1013.8
20260904115331 144 136 1.0 7.0 0.00 0.00 0.00 100 1013.6
20260904114829 144 198 2.0 7.0 0.00 0.00 0.00 100 1013.5
20260904114315 144 174 0.0 5.0 0.00 0.00 0.00 100 1013.5
20260904114045 144 142 0.0 7.0 0.00 0.00 0.00 100 1013.4
20260904113526 144 142 0.0 7.0 0.00 0.00 0.00 1 1013.4
20260904112743 144 167 1.0 5.0 0.00 0.00 0.00 2 1013.4
20260904112243 144 122 1.0 3.0 0.00 0.00 0.00 2 1013.4
20260904111737 144 122 0.0 0.0 0.00 0.00 0.00 3 1013.3
20260904111213 144 122 0.0 0.0 0.00 0.00 0.00 3 1013.2
20260904110706 144 122 0.0 0.0 0.00 0.00 0.00 3 1013.2
20260904110432 144 122 0.0 0.0 0.00 0.00 0.00 2 1013.2
20260904105701 144 122 0.0 0.0 0.00 0.00 0.00 2 1013.2
20260904105144 144 122 0.0 0.0 0.00 0.00 0.00 1 1013.2
20260904104641 144 122 0.0 0.0 0.00 0.00 0.00 100 1013.2
20260904104135 144 122 0.0 0.0 0.00 0.00 0.00 100 1013.1
20260904103625 144 122 0.0 0.0 0.00 0.00 0.00 100 1013.1
20260904103122 144 122 0.0 0.0 0.00 0.00 0.00 100 1013.0
20260904102616 144 122 0.0 0.0 0.00 0.00 0.00 100 1013.0
20260904102105 144 122 0.0 0.0 0.00 0.00 0.00 100 1013.0
20260904101601 144 122 0.0 0.0 0.00 0.00 0.00 100 1012.9
20260904101101 144 122 0.0 0.0 0.00 0.00 0.00 100 1012.9
20260904100544 144 122 0.0 4.0 0.00 0.00 0.00 100 1013.0
20260904100314 144 122 0.0 5.0 0.00 0.00 0.00 100 1012.9
20260904095542 144 146 0.0 5.0 0.00 0.00 0.00 100 1012.8
20260904095024 144 163 0.0 0.0 0.00 0.00 0.00 100 1012.8
20260904094757 144 163 0.0 0.0 0.00 0.00 0.00 100 1012.8
20260904094017 144 163 0.0 6.0 0.00 0.00 0.00 100 1012.6
20260904093441 144 163 2.0 6.0 0.00 0.00 0.00 100 1012.6
20260904092939 144 149 0.0 0.0 0.00 0.00 0.00 100 1012.6
20260904092418 144 149 0.0 8.0 0.00 0.00 0.00 100 1012.8
20260904091916 144 149 0.0 8.0 0.00 0.00 0.00 100 1012.8
20260904091401 144 163 0.0 5.0 0.00 0.00 0.00 100 1012.6
20260904090902 144 113 0.0 5.0 0.00 0.00 0.00 100 1012.6
20260904090358 144 161 0.0 9.0 0.00 0.00 0.00 100 1012.6
20260904085839 144 119 0.0 12.0 0.00 0.00 0.00 100 1012.8
20260904085319 144 160 0.0 11.0 0.00 0.00 0.00 100 1012.8
20260904084819 144 184 1.0 7.0 0.00 0.00 0.00 100 1012.8
20260904084302 144 196 1.0 6.0 0.00 0.00 0.00 100 1012.8
20260904083803 144 230 1.0 6.0 0.00 0.00 0.00 100 1012.8
20260904083259 144 106 0.0 9.0 0.00 0.00 0.00 100 1012.8
20260904082756 144 132 0.0 9.0 0.00 0.00 0.00 100 1012.8
20260904082249 144 147 0.0 7.0 0.00 0.00 0.00 100 1012.8
20260904081743 144 147 0.0 7.0 0.00 0.00 0.00 100 1012.9
20260904081241 144 209 3.0 5.0 0.00 0.00 0.00 100 1012.9
20260904081011 144 156 0.0 9.0 0.00 0.00 0.00 100 1013.0
20260904080226 144 136 2.0 10.0 0.00 0.00 0.00 100 1012.9
20260904075725 144 135 2.0 10.0 0.00 0.00 0.00 100 1012.9
20260904075222 144 126 3.0 10.0 0.00 0.00 0.00 100 1012.9
20260904074723 144 147 4.0 12.0 0.00 0.00 0.00 100 1012.9
20260904074450 144 150 5.0 12.0 0.00 0.00 0.00 100 1013.0
20260904073718 144 150 4.0 7.0 0.00 0.00 0.00 100 1013.0
20260904073218 144 180 4.0 10.0 0.00 0.00 0.00 100 1013.0
20260904072707 144 182 1.0 9.0 0.00 0.00 0.00 100 1013.0
20260904072208 144 185 2.0 7.0 0.00 0.00 0.00 100 1013.1
20260904071705 144 146 4.0 7.0 0.00 0.00 0.00 100 1013.1
20260904071206 144 127 4.0 7.0 0.00 0.00 0.00 100 1013.2
20260904070657 144 154 1.0 9.0 0.00 0.00 0.00 100 1013.2
20260904070427 144 115 3.0 9.0 0.00 0.00 0.00 100 1013.2
20260904065657 144 181 1.0 8.0 0.00 0.00 0.00 100 1013.2
20260904065149 144 172 4.0 8.0 0.00 0.00 0.00 100 1013.2
20260904064650 144 177 6.0 8.0 0.00 0.00 0.00 100 1013.3
20260904064148 144 170 3.0 9.0 0.00 0.00 0.00 100 1013.4
20260904063646 144 161 5.0 9.0 0.00 0.00 0.00 100 1013.3
20260904063145 144 191 3.0 9.0 0.00 0.00 0.00 100 1013.3
20260904062642 144 164 0.0 9.0 0.00 0.00 0.00 100 1013.2
20260904062141 144 154 3.0 9.0 0.00 0.00 0.00 100 1013.1
20260904061641 144 123 1.0 11.0 0.00 0.00 0.00 100 1013.2
20260904061133 144 174 5.0 11.0 0.00 0.00 0.00 100 1013.2
20260904060633 144 184 1.0 11.0 0.00 0.00 0.00 100 1013.2
20260904060131 144 181 4.0 11.0 0.00 0.00 0.00 100 1013.3
20260904055626 144 199 4.0 11.0 0.00 0.00 0.00 100 1013.3
20260904055126 144 140 3.0 9.0 0.00 0.00 0.00 100 1013.2
20260904054626 144 165 4.0 12.0 0.00 0.00 0.00 100 1013.2
20260904054356 144 147 3.0 12.0 0.00 0.00 0.00 100 1013.2
20260904053619 144 120 5.0 11.0 0.00 0.00 0.00 100 1013.1
20260904053118 144 223 0.0 15.0 0.00 0.00 0.00 100 1013.0
20260904052620 144 194 7.0 15.0 0.00 0.00 0.00 100 1013.0
20260904052120 144 161 5.0 10.0 0.00 0.00 0.00 100 1012.9
20260904052104 144 184 6.0 9.0 0.00 0.00 0.00 100 1012.8
20260904051332 144 201 1.0 12.0 0.00 0.00 0.00 100 1012.8
20260904050602 144 151 4.0 12.0 0.00 0.00 0.00 100 1012.8
20260904050101 144 160 0.0 12.0 0.00 0.00 0.00 100 1012.8
20260904045601 144 150 4.0 12.0 0.00 0.00 0.00 100 1012.8
20260904045057 144 147 2.0 11.0 0.00 0.00 0.00 100 1012.8
20260904044829 144 160 0.0 9.0 0.00 0.00 0.00 100 1012.9
20260904044056 144 182 0.0 9.0 0.00 0.00 0.00 100 1012.8
20260904043544 144 101 3.0 9.0 0.00 0.00 0.00 100 1012.8
20260904043044 144 150 1.0 10.0 0.00 0.00 0.00 100 1012.9
20260904042543 144 158 2.0 10.0 0.00 0.00 0.00 100 1012.8
20260904042315 144 177 5.0 9.0 0.00 0.00 0.00 100 1012.8
20260904041543 144 167 3.0 8.0 0.00 0.00 0.00 100 1012.8
20260904041030 144 171 4.0 10.0 0.00 0.00 0.00 100 1012.9
20260904040515 144 143 4.0 10.0 0.00 0.00 0.00 100 1012.8
20260904040013 144 140 0.0 8.0 0.00 0.00 0.00 100 1012.6
20260904035511 144 167 1.0 10.0 0.00 0.00 0.00 100 1012.5
20260904034508 144 170 5.0 11.0 0.00 0.00 0.00 100 1012.5
20260904034008 144 158 0.0 8.0 0.00 0.00 0.00 100 1012.5
20260904033507 144 115 3.0 8.0 0.00 0.00 0.00 100 1012.6
20260904033001 144 135 5.0 10.0 0.00 0.00 0.00 100 1012.5
20260904032729 144 175 6.0 12.0 0.00 0.00 0.00 100 1012.5
20260904031956 144 111 4.0 12.0 0.00 0.00 0.00 100 1012.5
20260904031456 144 144 3.0 10.0 0.00 0.00 0.00 100 1012.4
20260904030957 144 139 2.0 9.0 0.00 0.00 0.00 100 1012.4
20260904030456 144 143 5.0 11.0 0.00 0.00 0.00 100 1012.4
20260904030225 144 115 6.0 13.0 0.00 0.00 0.00 100 1012.3
20260904025459 144 161 6.0 10.0 0.00 0.00 0.00 100 1012.3
20260904025455 144 172 7.0 13.0 0.00 0.00 0.00 100 1012.4
20260904024455 144 142 5.0 9.0 0.00 0.00 0.00 100 1012.2
20260904023954 144 154 4.0 10.0 0.00 0.00 0.00 100 1012.3
20260904023454 144 164 5.0 15.0 0.00 0.00 0.00 100 1012.1
20260904022956 145 154 8.0 15.0 0.00 0.00 0.00 100 1012.0
20260904022454 145 165 2.0 11.0 0.00 0.00 0.00 100 1011.9
20260904021953 145 118 5.0 11.0 0.00 0.00 0.00 100 1011.9
20260904021725 145 163 5.0 10.0 0.00 0.00 0.00 100 1011.9
20260904020952 145 147 5.0 11.0 0.00 0.00 0.00 100 1011.8
20260904020452 145 182 2.0 11.0 0.00 0.00 0.00 100 1011.9
20260904020222 145 130 4.0 10.0 0.00 0.00 0.00 100 1011.9
20260904015451 145 170 4.0 13.0 0.00 0.00 0.00 100 1011.7
20260904014952 145 171 3.0 13.0 0.00 0.00 0.00 100 1011.6
20260904014452 145 157 6.0 10.0 0.00 0.00 0.00 100 1011.7
20260904013948 145 135 2.0 12.0 0.00 0.00 0.00 100 1011.6
20260904013449 145 160 8.0 12.0 0.00 0.00 0.00 100 1011.5
20260904012948 145 167 3.0 10.0 0.00 0.00 0.00 100 1011.4
20260904012454 145 142 4.0 12.0 0.00 0.00 0.00 100 1011.2
20260904012449 145 157 4.0 10.0 0.00 0.00 0.00 100 1011.4
20260904011447 145 147 5.0 14.0 0.00 0.00 0.00 100 1011.1
20260904010947 145 142 3.0 14.0 0.00 0.00 0.00 100 1011.1
20260904010447 145 202 4.0 11.0 0.00 0.00 0.00 100 1011.1
20260904010217 145 177 4.0 10.0 0.00 0.00 0.00 100 1011.2
20260904005716 145 154 5.0 14.0 0.00 0.00 0.00 100 1011.2
20260904004946 145 158 5.0 14.0 0.00 0.00 0.00 100 1011.1
20260904004444 145 135 3.0 12.0 0.00 0.00 0.00 100 1011.2
20260904004216 145 147 4.0 12.0 0.00 0.00 0.00 100 1011.3
20260904003443 145 158 4.0 11.0 0.00 0.00 0.00 100 1011.2
20260904002941 145 125 6.0 12.0 0.00 0.00 0.00 100 1011.2
20260904002442 145 143 4.0 13.0 0.00 0.00 0.00 100 1011.1
20260904001942 145 146 7.0 13.0 0.00 0.00 0.00 100 1011.1
20260904001442 146 165 5.0 11.0 0.00 0.00 0.00 100 1011.0
20260904000940 146 161 5.0 11.0 0.00 0.00 0.00 100 1011.0
20260904000441 146 143 4.0 11.0 0.00 0.00 0.00 100 1010.9
20260904000212 146 123 6.0 13.0 0.00 0.00 0.00 100 1010.9
20260903235438 146 140 6.0 13.0 0.00 0.00 0.00 100 1010.8
20260903234939 146 129 5.0 13.0 0.00 0.00 0.00 100 1010.8
20260903234438 146 205 6.0 13.0 0.00 0.00 0.00 100 1010.8
20260903234209 146 151 5.0 14.0 0.00 0.00 0.00 100 1010.9
20260903233443 146 174 5.0 11.0 0.00 0.00 0.00 100 1010.8
20260903233439 146 150 6.0 14.0 0.00 0.00 0.00 100 1010.8
20260903232440 146 120 6.0 13.0 0.00 0.00 0.00 100 1010.7
20260903231938 147 133 6.0 13.0 0.00 0.00 0.00 100 1010.6
20260903231436 147 130 4.0 11.0 0.00 0.00 0.00 100 1010.6
20260903231207 147 187 6.0 13.0 0.00 0.00 0.00 100 1010.5
20260903230707 147 123 4.0 13.0 0.00 0.00 0.00 100 1010.4
20260903225936 147 130 6.0 15.0 0.00 0.00 0.00 100 1010.3
20260903225435 147 61 8.0 15.0 0.00 0.00 0.00 100 1010.3
20260903224934 148 163 3.0 12.0 0.00 0.00 0.00 100 1010.2
20260903224434 148 132 6.0 15.0 0.00 0.00 0.00 100 1010.0
20260903223935 148 160 6.0 13.0 0.00 0.00 0.00 100 1009.7
20260903223931 148 118 7.0 15.0 0.00 0.00 0.00 100 1009.9
20260903223202 148 160 5.0 13.0 0.00 0.00 0.00 100 1009.7
20260903222430 148 161 5.0 14.0 0.00 0.00 0.00 100 1009.9
20260903221930 148 127 5.0 14.0 0.00 0.00 0.00 100 1009.9
20260903221430 148 150 6.0 13.0 0.00 0.00 0.00 100 1009.7
20260903220929 148 158 4.0 13.0 0.00 0.00 0.00 100 1009.7
20260903220430 148 144 5.0 12.0 0.00 0.00 0.00 100 1009.9
20260903215926 148 101 6.0 12.0 0.00 0.00 0.00 100 1009.9
20260903215424 148 158 5.0 9.0 0.00 0.00 0.00 100 1009.9
20260903215156 148 170 4.0 11.0 0.00 0.00 0.00 100 1009.9
20260903214425 148 150 8.0 11.0 0.00 0.00 0.00 100 1009.9
20260903213924 148 108 5.0 8.0 0.00 0.00 0.00 100 1010.0
20260903213655 149 106 0.0 13.0 0.00 0.00 0.00 100 1010.0
20260903212916 149 189 5.0 13.0 0.00 0.00 0.00 100 1010.2
20260903212416 149 130 5.0 11.0 0.00 0.00 0.00 100 1010.2
20260903212146 148 116 5.0 11.0 0.00 0.00 0.00 100 1010.2
20260903211412 148 167 5.0 11.0 0.00 0.00 0.00 100 1010.2
20260903210903 148 143 5.0 11.0 0.00 0.00 0.00 100 1010.2
20260903210401 149 154 1.0 10.0 0.00 0.00 0.00 100 1010.4
20260903205902 149 157 0.0 8.0 0.00 0.00 0.00 100 1010.4
20260903205401 149 115 3.0 7.0 0.00 0.00 0.00 100 1010.5
20260903204903 148 129 4.0 7.0 0.00 0.00 0.00 100 1010.5
20260903204632 148 140 2.0 8.0 0.00 0.00 0.00 100 1010.5
20260903204356 148 140 3.0 8.0 0.00 0.00 0.00 100 1010.5
20260903203330 149 129 3.0 7.0 0.00 0.00 0.00 100 1010.7
20260903202830 148 26 2.0 6.0 0.00 0.00 0.00 100 1010.8
20260903202330 149 104 4.0 6.0 0.00 0.00 0.00 100 1010.9
20260903201829 149 160 0.0 9.0 0.00 0.00 0.00 100 1010.9
20260903201329 150 123 0.0 9.0 0.00 0.00 0.00 100 1011.0
20260903200825 150 168 4.0 9.0 0.00 0.00 0.00 100 1010.9
20260903200326 150 123 0.0 6.0 0.00 0.00 0.00 100 1011.0
20260903195819 150 147 0.0 9.0 0.00 0.00 0.00 100 1011.1
20260903195316 149 189 2.0 9.0 0.00 0.00 0.00 100 1011.2
20260903194815 148 187 4.0 7.0 0.00 0.00 0.00 100 1011.2
20260903194316 148 168 0.0 11.0 0.00 0.00 0.00 100 1011.2
20260903193811 148 168 3.0 11.0 0.00 0.00 0.00 100 1011.3
20260903193303 148 109 4.0 10.0 0.00 0.00 0.00 100 1011.4
20260903192803 148 109 2.0 10.0 0.00 0.00 0.00 100 1011.4
20260903192529 149 150 4.0 7.0 0.00 0.00 0.00 100 1011.5
20260903191757 150 209 0.0 9.0 0.00 0.00 0.00 100 1011.6
20260903191257 149 184 4.0 10.0 0.00 0.00 0.00 100 1011.8
20260903190756 149 160 4.0 10.0 0.00 0.00 0.00 100 1011.8
20260903190257 150 97 2.0 9.0 0.00 0.00 0.00 100 1011.9
20260903185756 149 136 2.0 9.0 0.00 0.00 0.00 100 1012.0
20260903185250 149 168 2.0 9.0 0.00 0.00 0.00 100 1012.1
20260903184746 149 154 1.0 9.0 0.00 0.00 0.00 100 1012.1
20260903184247 149 146 0.0 8.0 0.00 0.00 0.00 100 1012.2
20260903183743 149 189 2.0 5.0 0.00 0.00 0.00 100 1012.3
20260903183243 148 189 2.0 6.0 0.00 0.00 0.00 100 1012.5
20260903182743 148 151 0.0 6.0 0.00 0.00 0.00 100 1012.6
20260903182240 148 156 4.0 6.0 0.00 0.00 0.00 100 1012.8
20260903181723 148 136 1.0 7.0 0.00 0.00 0.00 100 1012.9
20260903181210 148 147 4.0 7.0 0.00 0.00 0.00 100 1013.0
20260903180707 148 168 0.0 13.0 0.00 0.00 0.00 100 1013.0
20260903180201 149 146 4.0 14.0 0.00 0.00 0.00 100 1013.0
20260903175701 149 122 5.0 10.0 0.00 0.00 0.00 100 1012.9
20260903175201 148 164 2.0 9.0 0.00 0.00 0.00 100 1013.1
20260903174700 148 156 1.0 10.0 0.00 0.00 0.00 100 1013.1
20260903174200 149 180 3.0 10.0 0.00 0.00 0.00 100 1013.1
20260903173700 148 154 3.0 9.0 0.00 0.00 0.00 100 1013.2
20260903173200 148 188 6.0 9.0 0.00 0.00 0.00 100 1013.2
20260903172657 148 140 3.0 10.0 0.00 0.00 0.00 100 1013.2
20260903172156 148 203 6.0 11.0 0.00 0.00 0.00 100 1013.4
20260903171656 147 106 3.0 11.0 0.00 0.00 0.00 100 1013.4
20260903171155 147 178 3.0 10.0 0.00 0.00 0.00 100 1013.4
20260903170654 147 165 6.0 10.0 0.00 0.00 0.00 100 1013.4
20260903170154 147 185 5.0 9.0 0.00 0.00 0.00 100 1013.5
20260903165653 147 147 4.0 8.0 0.00 0.00 0.00 100 1013.5
20260903165153 147 133 2.0 9.0 0.00 0.00 0.00 100 1013.5
20260903164655 147 233 1.0 10.0 0.00 0.00 0.00 100 1013.5
20260903164651 147 192 5.0 10.0 0.00 0.00 0.00 100 1013.5
20260903163646 147 109 0.0 10.0 0.00 0.00 0.00 100 1013.5
20260903163242 147 185 6.0 10.0 0.00 0.00 0.00 100 1013.6
20260903162136 147 189 6.0 10.0 0.00 0.00 0.00 100 1013.5
20260903161633 147 220 0.0 11.0 0.00 0.00 0.00 100 1013.6
20260903161134 146 208 7.0 11.0 0.00 0.00 0.00 100 1013.6
20260903160634 146 208 7.0 11.0 0.00 0.00 0.00 100 1013.6
20260903160134 146 189 3.0 11.0 0.00 0.00 0.00 100 1013.5
20260903155633 146 216 7.0 11.0 0.00 0.00 0.00 100 1013.6
20260903155133 146 220 5.0 9.0 0.00 0.00 0.00 100 1013.6
20260903154633 146 168 3.0 11.0 0.00 0.00 0.00 100 1013.6
20260903154132 146 184 6.0 11.0 0.00 0.00 0.00 100 1013.8
20260903153632 146 195 5.0 10.0 0.00 0.00 0.00 100 1013.8
20260903153133 146 199 5.0 12.0 0.00 0.00 0.00 100 1013.8
20260903152633 146 208 5.0 14.0 0.00 0.00 0.00 100 1013.8
20260903152133 146 177 7.0 14.0 0.00 0.00 0.00 100 1013.8